Theta_e
300 301 301 302 303 303 302 302 302 302 302 298 294 298 293 292 289 301 306 305 301 293 286 289 287 285 289 293 292 293 292 290 292 290 291 289 292 290 289 289 288 291 291 291 290 290 287 287 286 289 289 291 292 295 295 296 294 294 291 295 294 307 288 286 287 291 292 294 295 296 296 295 291 292 292 290 288 290 285 284 285 284 285 284 283 281 283
300 300 301 301 301 302 302 302 302 302 302 298 297 294 292 292 292 295 306 305 300 290 282 283 285 287 290 290 289 292 290 291 290 289 291 289 289 289 289 291 293 289 293 292 289 292 283 289 290 288 292 290 297 295 295 296 292 292 291 289 298 288 290 288 281 282 283 286 291 290 294 293 290 288 291 292 292 293 292 294 291 284 286 287 282 279 283
301 300 300 300 301 301 302 302 302 302 303 302 298 291 293 292 295 297 301 303 299 287 290 287 285 287 287 288 287 288 288 291 291 291 290 294 292 291 290 292 293 291 294 292 293 293 290 287 291 291 293 293 297 295 295 295 293 296 303 308 300 289 289 286 280 277 275 275 277 279 282 285 289 294 291 292 292 291 290 283 285 281 285 290 282 283 292
301 300 301 301 301 302 302 302 302 302 302 302 298 295 293 289 283 290 291 295 294 294 297 293 290 287 287 285 288 290 287 292 293 294 292 295 295 295 294 295 295 292 293 290 289 291 292 289 290 290 290 293 295 296 295 295 295 301 308 306 299 292 296 291 285 282 280 282 287 293 292 289 285 289 291 290 292 292 292 288 283 281 285 283 289 294 294
300 300 300 301 301 301 302 302 302 302 302 303 298 297 293 293 285 285 283 289 292 289 291 290 289 286 291 284 289 286 288 291 292 296 288 295 293 293 294 293 291 291 291 290 290 293 290 292 291 294 293 296 295 296 296 295 298 310 302 302 296 294 288 291 292 292 290 291 291 292 292 289 289 289 289 290 291 292 291 284 283 289 286 281 292 297 294
299 300 300 300 301 301 302 302 302 302 302 303 300 291 292 284 288 290 292 285 283 284 285 288 287 290 291 288 291 288 288 289 286 293 294 294 294 289 293 293 294 292 290 291 285 289 290 291 287 293 293 292 294 292 295 294 300 303 296 298 296 292 283 293 292 292 294 293 292 293 292 291 290 290 290 290 291 291 288 288 293 291 282 281 295 297 296
300 300 299 300 301 301 301 302 302 302 301 302 298 289 292 290 289 289 293 284 287 286 287 289 289 289 291 290 291 289 289 288 291 290 290 290 289 291 284 289 293 293 294 291 287 291 287 286 294 294 294 293 289 288 291 294 296 296 295 295 297 291 284 293 294 292 293 293 292 293 291 290 290 291 292 292 292 291 291 292 294 294 292 299 298 298 296
300 300 300 300 300 301 301 302 302 302 301 301 295 293 288 286 285 285 291 289 287 288 289 290 289 287 291 286 290 290 289 288 291 293 290 285 288 292 289 292 293 294 293 292 290 292 294 293 289 296 294 291 290 289 291 289 293 294 293 296 295 290 284 293 293 287 290 294 294 292 292 291 289 290 291 291 292 292 293 293 294 296 295 299 299 296 296
298 299 299 300 300 300 301 301 301 301 302 295 292 292 294 292 294 292 286 283 287 289 289 288 288 286 290 287 290 290 290 289 292 292 294 290 287 289 290 294 294 294 294 294 294 297 295 296 296 296 296 289 296 290 291 293 292 293 293 293 295 292 285 294 291 283 284 293 292 295 293 292 289 289 290 290 291 289 290 288 292 292 291 294 296 293 295
298 298 299 300 300 301 301 301 301 301 301 295 293 289 295 294 295 294 290 283 288 286 289 288 288 285 289 290 290 290 290 292 294 288 295 295 295 296 295 296 294 292 292 292 295 297 298 298 299 300 299 300 300 301 300 294 293 291 291 294 290 290 287 283 283 282 282 292 293 292 291 289 285 283 289 291 292 293 295 296 296 295 295 290 286 289 304
298 299 298 299 299 300 300 301 301 301 300 294 292 291 293 290 289 290 290 283 285 287 286 287 286 288 290 292 291 293 292 293 294 288 287 295 296 299 299 296 293 289 290 295 303 302 301 301 301 302 300 300 299 300 300 297 295 295 295 291 290 293 291 285 290 283 283 291 291 290 283 277 280 292 299 297 293 293 291 291 293 296 296 291 293 299 308
298 298 298 299 299 300 301 301 301 301 300 299 298 294 296 297 294 292 287 282 283 287 286 284 286 287 288 291 292 291 291 292 292 295 291 294 296 299 299 297 295 285 300 308 307 304 304 305 303 301 302 301 301 301 299 296 294 295 295 293 291 292 290 285 290 283 283 286 287 280 275 279 292 298 302 302 298 298 297 295 297 298 297 298 304 307 308
298 299 298 298 299 299 300 300 301 301 301 300 298 293 297 299 293 290 288 284 282 284 283 285 287 289 291 291 291 292 294 295 296 297 298 296 295 299 299 297 295 298 305 304 304 302 297 293 296 296 298 299 299 298 297 297 296 298 295 295 294 287 286 286 285 285 285 284 281 275 276 291 298 298 299 301 300 298 294 291 294 298 296 296 298 307 308
299 299 299 299 299 299 300 300 300 301 301 301 297 296 298 298 292 290 288 284 283 286 287 285 288 288 289 290 291 292 294 294 296 297 296 298 297 297 298 299 299 303 304 306 303 299 290 289 285 288 290 293 291 289 296 295 298 297 298 295 296 296 292 288 284 286 281 282 280 281 290 289 291 292 295 295 292 294 290 285 287 296 297 296 296 305 307
298 298 298 299 299 299 299 299 300 300 301 301 299 298 298 298 297 293 293 289 283 285 286 282 286 287 289 290 291 290 291 293 292 292 298 302 298 300 301 302 305 303 305 301 298 298 288 286 284 283 284 284 280 282 293 291 296 296 297 296 294 294 288 289 285 283 284 281 280 281 280 278 282 293 299 302 302 300 299 293 287 295 299 298 297 303 305
298 298 298 298 298 299 299 299 299 300 301 301 299 298 298 301 301 298 294 288 285 280 287 291 290 289 288 290 292 291 290 289 291 293 293 295 297 302 306 308 307 305 304 302 298 291 287 285 283 283 281 283 289 286 283 290 288 293 296 296 294 295 294 291 284 284 282 281 279 279 277 279 285 291 298 301 301 303 299 289 285 292 298 299 297 300 306
298 298 298 298 298 298 299 299 299 299 300 300 297 297 297 301 299 296 293 290 287 283 290 291 292 292 290 290 292 290 291 288 292 287 286 289 294 299 301 304 305 305 303 300 296 288 286 285 285 286 288 292 286 284 291 288 285 288 293 295 292 291 288 285 284 282 282 280 280 280 282 283 291 297 299 300 301 300 292 283 281 293 303 304 300 300 307
298 298 298 298 298 298 299 299 300 300 300 301 298 296 295 300 302 301 295 290 285 286 290 293 292 288 287 290 288 292 294 293 293 294 289 293 296 296 297 300 299 303 304 292 293 287 286 285 284 284 283 293 294 293 281 288 284 284 284 286 285 286 284 285 281 282 284 284 281 283 285 292 299 299 299 300 303 295 283 280 285 297 303 304 302 299 304
298 298 298 298 298 298 299 299 299 300 300 300 299 297 296 299 300 300 296 290 288 284 292 296 295 291 293 296 292 293 294 294 294 288 287 288 294 298 299 301 302 291 300 291 293 287 285 286 293 287 283 287 293 284 291 283 283 290 289 285 286 285 285 284 284 283 282 281 281 281 284 294 301 300 303 302 296 283 281 292 303 304 305 306 305 303 301
298 298 298 298 298 298 299 299 299 299 300 300 299 294 295 298 300 301 296 289 288 286 291 292 294 292 297 294 292 292 293 294 295 292 290 287 296 298 294 291 297 298 293 295 285 291 286 284 287 292 284 286 290 295 288 287 292 288 288 289 285 284 283 281 281 283 284 282 281 281 278 289 305 301 298 299 286 286 297 302 305 308 306 306 307 307 304
298 297 297 298 298 298 299 299 299 299 300 300 299 295 293 299 301 301 304 297 291 287 289 298 300 298 298 297 298 298 296 292 293 291 294 293 297 294 286 287 294 292 287 289 285 285 288 284 286 287 291 289 292 292 284 284 289 294 292 288 288 290 283 283 283 286 280 281 279 280 285 294 305 299 287 296 298 299 305 306 302 307 307 307 306 308 309
298 297 297 298 298 298 298 298 299 299 300 300 300 297 292 296 299 300 301 301 294 289 292 297 299 297 299 300 299 300 298 298 299 300 295 290 295 294 293 297 298 297 297 297 291 288 293 291 293 287 284 287 294 287 291 284 282 290 295 292 283 290 288 288 283 290 284 282 288 294 299 303 305 307 305 305 308 309 309 307 306 305 305 308 306 308 309
298 297 297 297 298 298 299 299 299 299 299 300 299 295 292 295 296 300 299 294 296 297 298 297 299 299 301 302 303 303 303 303 302 300 300 294 286 293 295 299 297 303 301 301 294 293 293 293 286 292 288 289 288 287 292 289 284 290 285 293 292 297 296 295 292 291 297 299 300 302 303 303 304 305 307 308 307 307 308 307 305 306 308 309 308 310 310
298 298 297 297 298 298 298 299 299 299 299 299 299 296 294 296 296 296 296 296 293 290 294 298 296 291 299 301 304 305 303 302 302 302 303 301 288 286 298 302 305 304 302 302 303 297 293 292 293 296 287 292 295 285 282 283 286 292 290 287 292 296 297 295 289 295 288 283 294 300 301 302 305 305 307 308 309 308 308 307 307 307 309 309 311 309 310
298 298 297 297 298 298 298 299 299 299 299 299 299 298 298 296 298 298 294 287 288 288 285 289 292 298 302 305 306 305 303 305 305 304 303 302 300 295 294 303 304 299 298 301 303 300 293 289 291 291 286 296 295 284 294 287 286 295 284 290 294 291 300 293 295 291 285 286 297 302 303 304 305 303 302 303 306 306 307 308 309 308 308 310 311 311 310
298 298 297 297 297 298 298 298 299 299 299 299 299 295 293 293 297 298 296 295 295 294 287 287 293 304 305 302 301 304 309 306 305 304 304 304 304 303 302 302 302 306 303 304 303 295 290 288 288 289 290 288 300 290 289 294 291 295 292 290 297 298 299 288 296 291 294 299 299 299 298 299 301 306 306 307 307 306 306 309 309 310 309 308 309 310 310
298 298 297 297 297 298 298 298 299 299 299 299 298 296 295 296 298 296 294 295 293 288 290 288 293 298 301 298 302 305 307 305 304 303 303 304 304 304 303 301 300 300 301 299 299 294 291 289 289 289 293 291 297 295 296 293 294 287 286 296 300 297 292 297 292 285 285 289 294 299 289 288 294 303 305 307 309 309 307 306 309 308 308 307 308 308 309
298 298 297 297 298 298 298 298 299 299 299 299 298 297 297 296 297 299 300 299 295 289 289 289 291 296 301 298 304 306 307 305 304 303 302 303 304 304 303 302 301 299 298 294 287 289 288 289 291 290 292 296 292 289 297 299 298 291 293 294 299 296 297 293 284 285 285 295 302 304 299 297 302 304 307 309 309 309 308 309 308 307 306 307 307 308 308
298 298 297 298 298 298 298 299 299 299 299 299 297 296 296 298 299 301 302 304 303 299 294 293 296 294 288 297 304 303 306 305 304 303 303 303 304 304 303 303 302 301 299 295 290 289 288 287 290 292 293 298 296 290 293 285 286 285 290 299 301 302 303 302 302 301 300 303 304 304 302 300 304 307 307 307 310 309 310 310 308 308 308 307 309 309 308
298 298 298 298 298 298 298 298 299 299 299 297 295 293 291 299 304 304 304 307 306 302 291 288 285 287 299 299 299 304 305 305 305 305 304 303 303 303 303 302 302 302 299 291 290 287 287 289 288 297 304 305 295 290 288 289 287 291 299 301 303 303 305 304 305 302 299 305 306 307 305 306 306 307 306 306 309 311 307 306 306 306 307 307 307 308 309
299 298 298 298 298 298 299 299 299 299 299 295 293 286 287 287 298 305 304 305 304 299 291 290 288 292 291 299 301 302 304 304 304 304 305 305 303 304 305 304 302 300 291 291 291 287 290 287 289 293 302 303 294 290 290 290 287 292 298 301 301 303 304 304 305 306 306 305 306 307 307 306 306 306 306 306 307 309 307 306 307 307 307 307 307 307 307
299 298 298 298 298 298 299 299 299 299 297 294 291 289 294 296 299 301 302 302 302 298 290 287 287 287 287 293 302 305 304 305 306 305 304 306 303 305 303 303 298 302 296 291 290 290 287 288 290 294 295 300 296 292 293 291 287 288 297 299 301 303 304 305 306 306 306 308 307 303 303 303 305 304 301 305 308 308 306 306 307 308 307 307 307 308 309
299 298 298 298 298 299 299 300 300 299 296 298 301 302 301 301 302 301 301 300 298 296 298 290 286 289 286 293 301 303 304 304 302 303 300 304 303 303 297 302 303 303 305 295 290 288 293 291 291 288 296 299 289 289 291 288 291 297 298 301 303 303 304 307 307 307 306 306 306 301 299 301 303 306 307 306 307 306 305 305 306 307 306 305 305 306 307
299 298 298 298 299 299 300 300 300 300 300 297 293 294 299 302 301 302 301 299 295 298 295 290 287 286 287 297 294 300 304 296 296 300 291 303 305 301 294 299 301 292 296 291 291 293 291 292 289 288 297 293 293 288 286 291 298 300 302 303 303 305 306 306 305 304 304 304 305 305 304 303 305 305 306 306 306 306 306 305 306 305 305 304 304 305 307
298 298 298 299 299 300 300 300 298 297 294 296 296 300 304 303 305 305 302 297 292 289 290 289 288 284 285 286 286 295 303 298 294 298 292 297 305 299 299 292 293 290 289 302 291 289 289 289 295 289 288 295 290 287 288 295 298 300 302 304 304 304 304 303 304 303 302 303 305 307 306 306 304 305 304 304 305 304 304 304 305 304 303 303 304 304 305
298 298 299 300 300 301 299 300 298 296 296 297 302 305 306 307 306 303 303 304 299 292 289 289 289 286 288 284 285 291 302 295 298 299 300 294 299 304 299 292 288 291 299 292 287 293 289 296 292 287 291 289 288 291 294 299 300 300 302 302 303 303 303 303 302 302 302 303 303 303 305 304 303 303 303 303 303 304 303 303 303 303 302 302 302 303 304
298 299 300 300 300 299 297 296 301 301 302 304 304 305 304 304 308 307 305 302 304 304 295 289 287 289 290 286 289 291 297 285 293 291 297 291 289 293 293 288 287 291 292 289 289 287 292 299 290 287 288 287 289 296 301 302 302 301 302 304 303 303 302 301 301 302 302 303 303 301 301 301 301 302 302 302 302 302 302 301 302 302 301 302 302 302 302
299 299 297 297 299 291 292 295 303 306 305 303 303 301 299 300 291 292 295 292 298 299 292 294 288 292 295 293 287 297 295 288 295 287 287 289 289 290 291 289 288 290 286 286 290 298 293 290 287 287 290 296 298 300 301 301 301 301 300 301 301 300 300 301 301 301 299 297 296 298 298 299 299 300 300 300 301 301 301 302 303 303 303 303 303 302 302
298 297 298 297 293 289 290 297 305 305 303 304 304 294 289 293 290 288 289 291 293 289 292 293 289 294 293 293 294 300 295 288 285 289 285 292 286 285 288 285 288 288 286 285 288 299 286 287 285 287 288 294 293 296 299 299 299 300 300 300 300 300 300 300 300 299 299 297 297 298 298 297 297 298 299 299 300 301 301 302 302 303 302 302 302 302 302
295 290 286 287 288 290 297 301 304 300 301 294 294 291 287 291 288 285 291 288 287 290 293 288 295 296 297 294 292 290 299 292 284 284 286 288 294 285 287 287 287 285 282 283 285 296 285 283 285 285 286 291 293 297 298 299 298 299 300 301 301 301 300 301 301 303 301 300 300 300 300 300 300 299 299 299 299 300 301 302 302 302 302 301 301 302 301
292 290 289 285 291 293 295 297 298 299 294 290 290 290 288 285 289 290 289 285 286 287 295 294 297 295 297 297 295 289 298 299 296 295 290 284 291 290 285 283 287 284 283 282 286 287 286 284 285 286 287 293 295 296 298 298 298 299 300 301 301 301 301 301 301 301 301 300 300 300 300 300 300 299 300 300 300 300 301 301 301 301 301 301 300 300 301
291 290 292 294 294 294 295 295 292 290 291 292 287 284 287 286 289 288 288 283 284 287 292 295 290 293 294 296 295 295 292 297 294 289 286 284 287 285 284 286 286 282 281 285 289 286 285 281 284 286 291 296 297 297 298 297 297 298 298 299 299 299 301 301 301 302 302 301 299 300 300 301 301 301 301 301 301 301 301 301 301 301 301 301 301 301 301
297 297 295 293 292 289 291 287 290 290 284 285 283 281 285 283 284 283 285 288 294 291 292 301 297 299 299 299 295 297 290 298 290 286 286 283 288 287 284 283 282 280 283 288 286 284 282 282 284 288 295 296 297 298 298 299 299 299 299 299 299 301 301 301 301 301 301 301 301 301 302 302 302 303 303 302 302 301 300 300 299 300 300 300 300 301 301
295 295 291 288 287 287 289 281 290 287 284 286 282 278 281 281 283 286 284 285 291 289 295 295 294 293 286 294 292 290 291 293 291 288 286 287 285 282 282 280 281 285 291 285 284 282 283 286 287 292 296 297 301 298 298 299 299 299 299 299 301 302 301 301 301 300 300 301 301 302 303 302 302 303 303 302 301 300 299 299 299 299 299 300 300 300 301
288 286 287 286 285 288 286 279 289 285 280 282 286 283 283 281 283 285 285 291 296 293 295 295 295 296 290 298 295 293 288 286 288 284 282 285 282 283 281 280 284 285 283 280 282 283 283 285 292 295 296 296 297 298 299 299 300 299 299 299 301 301 300 300 301 301 301 301 301 301 301 302 302 302 302 302 302 302 300 299 300 300 300 299 299 299 300
285 284 284 282 280 285 284 281 284 282 285 287 285 289 287 289 290 290 297 298 295 295 294 295 295 295 289 293 288 287 288 288 286 285 285 285 282 279 284 286 285 281 280 281 279 280 282 288 290 294 297 297 297 298 298 299 299 299 299 298 299 300 301 301 301 301 302 301 300 300 300 301 301 300 300 301 301 301 301 300 300 300 299 298 298 298 299
286 287 286 286 282 285 287 282 283 285 289 289 291 292 291 293 295 298 301 299 295 296 296 299 297 295 291 288 288 288 289 288 285 285 285 281 280 282 286 281 278 279 278 276 278 281 284 289 293 296 298 298 298 298 298 297 299 299 299 299 299 299 300 301 301 300 301 301 301 301 301 301 301 301 301 300 301 301 300 300 300 300 299 298 298 299 299
282 286 286 279 279 284 283 284 291 291 292 292 295 297 299 298 296 295 297 299 298 297 296 296 291 290 289 293 292 285 286 288 285 284 285 283 284 280 279 279 278 281 282 282 283 286 288 292 294 296 298 298 298 298 298 298 298 299 299 298 298 300 300 300 300 300 301 301 301 301 301 301 302 301 300 299 299 300 301 300 300 300 300 299 299 298 298
287 284 282 282 284 285 285 290 290 288 291 293 294 296 295 294 294 295 298 299 298 298 299 295 289 289 286 288 287 286 284 287 283 281 284 282 278 275 277 276 277 277 281 285 286 289 290 294 297 298 299 299 299 299 298 299 299 298 299 299 300 300 300 300 300 300 301 301 300 300 300 301 300 299 301 301 299 298 299 299 300 300 300 299 298 298 297
284 283 284 282 281 283 287 288 287 286 290 291 293 292 296 295 296 299 299 298 297 296 296 293 292 287 286 286 283 285 284 287 286 286 282 280 279 280 280 277 279 280 283 287 288 291 294 297 299 299 299 299 298 299 298 298 297 298 299 298 299 300 301 299 299 300 301 301 301 300 300 299 300 300 300 300 301 301 299 298 298 298 299 299 298 297 296
286 283 283 287 283 283 285 282 283 283 285 288 291 292 293 294 295 297 298 298 298 295 289 287 287 287 285 284 283 281 282 287 284 282 282 281 283 280 279 278 280 283 286 290 292 293 294 297 299 298 299 298 299 299 299 299 299 299 299 299 299 300 301 301 300 300 300 301 301 296 300 300 301 301 301 300 300 299 299 298 298 298 298 298 298 297 296
283 281 281 285 288 287 287 287 287 286 286 290 293 297 296 293 297 297 302 298 294 289 287 288 287 285 283 282 284 286 288 286 284 283 281 283 284 281 280 281 284 290 291 292 293 294 294 298 300 299 299 299 298 299 298 299 299 299 299 299 299 299 298 299 300 300 300 300 301 302 301 300 300 300 300 300 299 298 296 295 296 297 297 298 298 298 297
Wind_Speed
23 23 23 24 24 25 25 26 26 24 25 13 13 8 5 5 6 6 3 3 3 3 6 7 2 4 4 8 7 7 8 5 5 6 3 4 2 2 3 4 3 4 2 4 6 11 2 7 2 5 7 6 11 8 13 10 9 4 2 3 5 5 3 8 4 1 9 9 6 11 11 2 4 4 4 3 7 7 5 3 4 3 1 3 1 4 2
23 23 24 24 24 25 25 26 27 25 21 12 11 6 6 7 6 5 3 5 4 2 4 6 7 7 8 5 9 5 5 6 7 3 6 3 3 3 3 4 3 6 7 6 6 7 2 4 1 6 5 3 11 12 12 12 5 3 2 2 2 2 0 8 4 1 3 7 1 4 7 3 1 3 6 3 4 12 7 2 1 2 4 7 7 5 2
22 24 23 24 24 24 25 25 26 26 24 17 8 6 5 6 4 2 1 0 2 3 4 7 8 11 11 9 10 5 2 4 8 6 6 5 4 3 3 4 7 6 6 8 6 11 7 2 6 7 4 3 7 6 13 10 5 7 2 8 3 3 3 6 7 7 8 10 10 9 8 5 1 1 4 7 2 13 9 7 1 4 3 4 4 1 4
22 23 23 23 24 24 24 25 24 24 23 22 8 5 5 3 5 4 2 1 4 5 4 5 5 9 9 13 7 8 8 1 3 3 4 4 7 4 6 6 5 6 7 6 4 2 7 5 2 7 3 3 4 6 13 12 6 8 5 6 5 2 2 3 4 6 5 3 2 1 1 1 4 3 3 4 6 3 6 6 3 5 1 2 1 9 3
21 22 23 22 23 24 24 24 23 24 24 24 9 4 2 3 2 5 7 7 1 7 7 8 9 9 10 6 7 8 7 7 2 3 2 8 9 6 2 4 5 5 8 5 6 3 6 9 9 1 3 3 2 9 8 11 3 9 2 3 2 1 3 4 3 3 3 6 7 8 9 5 4 4 4 5 4 4 2 6 7 5 4 4 0 10 8
22 22 22 22 22 23 24 24 24 24 24 26 8 3 4 3 2 3 3 5 7 11 8 10 13 16 13 5 6 6 9 9 7 3 3 6 6 6 4 7 9 9 7 7 4 3 6 2 1 6 4 3 5 3 4 2 2 4 3 3 1 1 2 1 1 3 5 6 8 12 10 6 7 7 8 11 7 5 4 4 3 4 5 2 4 9 9
21 21 22 23 23 24 24 24 23 22 25 21 4 4 3 2 2 3 8 5 7 9 13 18 14 14 11 5 5 9 10 10 6 0 7 6 6 8 2 9 11 10 12 5 1 11 6 4 7 7 8 2 3 2 4 8 2 1 2 1 0 3 0 1 1 3 7 7 10 14 13 10 5 5 2 5 6 7 7 4 3 0 2 12 7 8 7
21 20 21 22 23 23 23 22 24 22 23 13 5 6 4 4 5 4 4 4 9 8 8 9 11 8 10 4 7 9 10 11 10 2 2 4 5 4 4 10 12 10 10 5 3 4 4 4 4 8 12 8 3 1 2 1 4 1 1 0 4 3 2 6 3 4 6 7 3 10 15 10 5 4 5 6 5 5 2 1 1 7 2 6 11 10 7
21 21 20 21 21 22 22 22 22 21 19 5 6 3 5 4 3 5 7 8 5 7 8 8 9 7 5 6 10 10 12 11 9 5 6 3 3 3 4 8 8 6 9 6 5 4 5 6 6 7 5 5 5 3 2 2 2 3 1 1 3 3 1 2 2 3 4 3 2 3 5 10 9 6 8 7 4 2 1 1 2 2 3 3 7 8 7
19 20 20 19 19 21 22 22 22 19 16 4 4 4 5 4 3 5 5 5 6 9 8 9 8 3 8 10 12 9 12 11 11 6 4 7 6 6 6 3 4 4 9 8 6 8 6 8 9 9 8 7 10 7 7 3 3 2 1 1 1 1 2 3 3 1 4 2 10 6 6 8 6 4 3 8 3 2 0 1 3 4 4 5 5 8 11
19 19 20 20 20 20 21 21 21 20 10 8 7 5 6 6 7 5 2 5 4 5 9 7 7 7 12 14 14 12 11 12 9 7 3 4 4 7 2 4 5 3 4 4 6 5 7 9 12 10 10 11 7 9 7 3 4 3 1 1 2 2 3 1 1 1 2 3 6 2 4 4 3 2 2 3 1 3 3 2 2 3 4 2 6 7 12
19 19 19 19 19 19 19 19 20 19 12 6 5 5 4 5 5 3 3 5 6 6 7 6 9 10 14 13 13 12 13 13 13 10 11 8 8 1 7 3 1 2 5 4 4 7 12 10 8 5 6 10 13 12 11 2 11 1 3 4 1 2 3 1 1 1 2 3 6 4 0 2 3 1 1 2 5 8 2 3 3 3 4 8 13 14 13
18 19 19 19 19 19 19 18 19 18 16 8 6 6 5 5 5 3 4 4 5 8 8 9 13 13 12 14 13 12 13 15 12 11 7 7 8 3 5 2 3 6 3 3 5 4 5 5 4 4 4 8 8 7 8 4 4 4 3 1 2 1 2 1 3 1 3 3 2 2 2 2 3 4 2 3 4 3 5 4 4 3 6 7 12 12 15
18 18 18 18 19 18 18 18 18 19 19 12 6 6 5 5 5 3 2 4 7 6 7 10 8 11 14 14 12 13 13 12 12 10 8 6 8 8 6 5 10 2 7 7 2 3 4 5 4 6 6 5 4 4 5 7 3 0 1 3 1 1 1 1 2 2 1 1 4 3 0 3 5 4 4 3 2 1 3 0 4 3 2 7 10 13 10
18 18 18 18 18 18 18 17 17 18 18 17 6 6 5 5 4 4 2 2 6 10 6 4 9 12 13 12 11 10 8 9 11 9 10 4 3 7 9 9 11 3 8 9 1 1 1 0 3 3 4 4 1 2 3 1 3 6 3 3 3 2 2 2 3 2 2 2 2 1 1 0 4 4 5 0 4 2 1 2 5 5 4 0 9 16 13
18 18 18 19 19 18 18 17 17 18 17 18 7 6 6 4 4 4 3 1 4 6 2 5 10 9 8 9 10 11 7 7 8 9 7 7 9 6 5 9 9 3 4 3 1 2 1 2 1 2 0 0 2 2 2 4 3 6 3 6 8 5 4 1 5 0 2 1 1 1 2 4 5 6 6 2 1 0 3 2 5 5 5 5 1 11 14
17 17 17 18 19 19 18 17 17 17 17 17 8 7 6 5 3 3 3 1 3 8 13 13 8 6 8 8 6 5 6 7 8 6 7 9 11 10 14 14 8 3 3 1 1 3 3 3 2 2 2 1 1 1 4 2 3 3 4 3 7 6 2 1 0 1 0 2 0 1 0 1 2 3 3 3 3 5 7 3 5 3 7 6 4 4 14
18 17 17 18 17 18 18 17 17 17 15 16 9 7 8 6 3 2 3 2 2 7 4 4 4 7 6 4 7 6 4 5 6 5 5 8 8 9 12 9 6 6 3 0 0 1 0 4 5 2 1 3 2 3 1 2 2 2 3 3 1 0 1 2 2 3 1 2 2 2 2 4 3 2 2 3 4 5 5 7 3 4 5 5 4 5 6
17 17 17 18 18 18 18 17 17 17 16 16 9 8 4 6 7 3 5 3 1 6 8 6 8 11 11 7 8 6 5 7 8 5 7 6 4 11 15 4 6 4 6 3 4 2 1 1 1 2 4 2 5 1 2 2 1 1 2 1 1 2 1 0 2 1 1 3 2 3 1 3 1 1 5 3 5 0 2 4 3 2 5 6 5 3 5
17 18 18 17 18 18 18 18 17 17 17 16 10 6 8 8 8 6 5 5 3 8 13 10 6 10 4 5 6 5 5 6 4 4 4 5 8 11 8 3 5 6 7 5 2 2 1 3 3 2 4 1 1 1 1 2 3 1 0 2 1 3 1 1 3 1 1 1 1 0 0 2 0 1 4 3 4 3 4 3 3 2 4 6 7 6 3
17 18 18 18 18 18 17 17 18 17 16 16 11 7 9 5 6 5 2 4 5 9 10 4 3 7 8 11 11 11 9 10 6 3 4 6 6 5 4 2 6 3 3 3 3 3 3 3 4 1 1 1 4 2 1 1 2 4 2 3 3 1 1 0 1 2 2 1 1 1 2 2 1 3 2 1 3 4 1 2 4 6 6 6 6 6 4
17 18 19 18 18 18 18 18 18 17 17 16 15 7 9 6 7 6 6 3 6 7 8 13 10 16 18 16 17 16 17 17 16 7 6 5 3 3 5 5 2 2 1 1 2 2 4 2 2 2 3 2 2 2 2 3 2 3 1 3 1 2 2 2 1 0 1 1 1 3 2 1 4 4 3 3 1 2 4 3 2 4 5 4 4 6 7
17 18 18 18 18 18 17 17 18 17 16 16 12 6 8 9 8 7 6 7 7 9 10 12 13 13 15 16 18 18 16 14 11 8 7 4 4 3 4 2 2 1 1 2 1 2 1 2 1 1 2 1 1 3 2 3 2 4 2 2 0 1 5 2 4 1 2 1 1 2 5 5 6 4 3 4 4 4 4 4 4 3 1 2 4 5 5
17 17 18 19 18 18 18 18 18 17 17 15 11 7 9 7 9 8 7 5 5 8 9 6 3 6 4 11 10 4 8 8 12 12 7 6 3 3 1 0 2 1 0 3 4 1 2 1 4 4 2 1 0 2 2 3 1 3 2 3 1 2 1 0 1 1 2 1 4 6 3 2 4 3 3 3 1 2 2 3 1 2 4 4 4 5 6
18 18 19 19 19 19 19 19 18 18 17 17 13 8 8 8 6 5 6 3 3 2 5 8 9 13 15 13 14 2 6 8 7 8 8 8 7 5 3 1 2 2 3 4 2 2 0 1 3 1 0 0 1 1 1 0 3 2 4 3 3 5 5 2 0 3 2 3 2 1 0 2 1 2 3 1 1 3 2 1 2 3 3 4 4 5 5
18 19 19 20 19 19 19 19 19 18 17 18 16 9 9 9 7 7 7 7 7 4 4 5 9 9 8 14 12 7 3 9 9 10 10 11 11 8 6 3 3 2 2 2 3 2 1 1 2 1 0 1 1 3 2 6 4 3 1 3 3 4 4 1 1 1 2 5 3 3 3 2 5 5 4 2 4 3 4 4 2 0 2 4 4 5 5
18 19 20 20 20 19 19 19 19 19 19 19 12 9 9 9 6 7 7 5 5 2 2 5 7 14 11 17 18 10 4 9 8 8 8 10 9 7 5 4 5 3 2 3 2 1 1 2 0 2 1 1 1 1 1 0 1 0 1 2 3 3 1 2 5 4 2 0 3 2 2 2 2 1 1 2 3 4 3 3 1 2 1 3 2 5 2
18 20 21 20 21 20 20 20 19 19 19 21 14 10 9 10 8 8 8 8 5 3 5 7 9 14 16 14 8 5 7 8 8 7 6 5 5 4 4 4 2 0 1 1 3 1 1 1 3 2 0 1 2 2 1 0 0 1 1 2 1 1 1 1 3 4 2 6 7 5 6 3 0 2 2 0 2 3 3 1 2 3 2 5 3 6 8
20 20 21 21 21 21 20 20 20 18 20 18 10 12 11 10 10 9 10 8 8 5 5 8 10 7 4 10 15 12 7 9 8 6 7 7 7 5 5 4 3 0 1 0 1 1 1 3 3 0 1 3 1 2 1 1 0 1 1 2 1 0 1 3 2 2 1 3 3 3 1 2 1 1 1 1 2 1 1 2 2 1 2 3 6 7 11
21 22 22 22 22 22 21 20 20 18 18 10 7 5 4 2 1 4 5 5 2 1 3 5 7 5 7 7 7 7 7 10 9 9 8 7 6 6 5 3 1 1 0 1 1 1 2 2 2 1 1 0 1 1 0 1 0 0 1 3 4 3 0 2 3 1 1 1 0 1 1 2 0 1 3 4 2 2 2 4 4 5 3 6 5 6 7
23 23 22 22 22 21 21 20 19 18 16 7 5 2 1 2 0 4 8 6 5 2 2 2 8 6 8 6 7 9 11 10 9 8 8 7 7 5 3 5 1 2 0 1 0 4 0 2 1 2 1 0 1 1 1 0 0 1 2 2 1 1 1 2 2 2 1 1 1 1 0 0 0 2 1 1 2 2 1 2 4 4 4 8 6 5 7
24 24 22 22 22 21 20 20 19 14 6 6 6 5 1 2 1 8 9 6 7 3 2 4 5 2 3 6 4 4 6 15 9 5 3 5 3 3 4 2 2 3 2 1 2 1 1 4 1 2 2 2 2 2 2 1 0 1 0 1 1 2 4 6 3 4 3 2 1 2 2 3 1 3 1 3 1 3 4 4 3 6 7 7 7 7 7
25 24 24 23 23 23 22 20 19 12 7 10 15 21 25 28 26 20 11 5 3 3 2 2 3 3 3 6 8 9 4 4 4 5 2 3 3 3 1 1 1 1 2 1 1 2 1 0 0 1 1 2 2 1 1 1 1 0 1 1 3 5 6 7 5 5 3 5 3 1 2 2 0 0 1 3 5 5 4 4 4 5 6 7 8 8 7
25 24 25 25 24 24 24 22 19 17 14 8 8 8 9 18 18 20 10 3 3 4 2 1 2 3 6 5 4 6 3 4 4 5 2 2 2 3 3 2 2 0 2 4 2 0 2 0 2 2 0 2 0 1 1 1 2 3 2 3 2 2 3 5 8 5 2 2 4 5 0 1 3 3 3 5 6 5 4 3 4 7 5 6 6 6 8
26 26 25 26 25 24 25 22 10 4 5 5 6 6 1 3 3 10 12 7 4 2 2 2 1 3 4 3 3 7 4 2 3 6 6 3 3 3 2 1 0 1 2 1 1 2 1 4 4 1 2 1 2 0 1 1 3 4 2 2 2 3 4 4 8 2 3 4 4 4 6 0 2 0 3 4 4 4 4 4 6 7 7 6 8 8 7
26 27 27 26 28 21 10 5 4 4 4 3 2 3 4 3 6 6 8 4 2 1 1 2 1 4 3 4 4 4 3 3 3 2 2 2 1 0 2 2 1 5 2 3 3 2 3 3 2 0 1 1 1 2 1 3 0 1 1 3 4 6 6 6 5 3 1 0 3 5 4 0 2 4 4 4 4 5 5 5 5 6 6 7 7 8 8
28 27 29 25 10 2 3 2 4 3 1 1 1 5 3 1 1 1 2 2 2 1 3 2 4 6 4 4 2 3 3 3 3 2 2 2 4 1 2 1 3 1 2 1 2 3 7 3 1 1 0 2 2 3 6 5 4 0 2 4 3 3 5 6 6 4 1 3 8 7 6 6 6 6 6 5 5 4 5 4 4 6 6 6 5 7 8
27 27 10 3 2 2 1 1 2 3 8 2 6 3 1 2 2 2 2 2 3 4 3 3 6 6 3 2 5 6 3 3 2 1 1 1 2 1 1 2 3 2 3 3 5 4 2 2 1 3 1 2 4 6 4 4 5 2 3 3 5 4 5 7 6 7 7 6 6 6 7 7 5 5 6 7 6 6 5 5 5 5 6 7 8 7 7
20 8 3 2 2 1 1 2 7 14 10 4 3 1 1 2 1 2 3 2 1 3 3 5 7 6 5 5 7 5 1 1 3 2 2 1 1 1 1 1 1 1 1 1 1 2 0 1 1 2 3 1 3 4 5 5 4 3 4 4 4 5 5 4 4 6 7 5 4 4 4 5 4 4 4 5 5 5 5 6 6 5 6 7 8 7 8
4 6 3 3 1 2 6 8 12 9 3 1 2 1 1 2 2 2 2 2 2 2 3 6 5 5 7 9 7 4 0 1 1 2 0 3 1 1 1 0 1 1 1 0 2 0 1 0 1 2 1 1 3 4 5 5 5 4 4 5 6 6 5 5 4 3 6 5 6 5 5 6 6 6 6 7 6 6 6 7 7 6 6 6 8 8 6
4 4 4 2 4 5 6 9 7 3 1 1 1 1 0 1 2 1 1 3 2 2 4 5 2 3 3 5 3 2 3 0 1 0 1 1 1 1 1 1 1 1 1 0 1 1 1 1 2 1 2 3 4 4 7 5 5 7 7 6 7 8 4 5 7 5 6 7 6 6 5 5 5 5 5 7 6 6 6 7 8 7 7 8 9 7 5
5 5 6 8 9 9 8 3 2 1 1 1 1 1 2 2 1 1 1 2 3 1 3 3 3 1 1 2 1 0 1 1 0 0 0 1 1 1 1 1 0 1 1 2 1 0 0 1 2 0 1 2 4 5 7 6 6 7 6 5 5 6 5 5 5 7 7 6 4 4 5 5 6 7 6 6 6 5 5 7 8 7 7 6 6 5 5
19 15 8 5 3 2 2 2 2 1 1 1 1 2 1 1 2 3 2 1 1 1 1 1 2 1 0 2 2 1 2 1 0 0 0 1 0 0 0 1 0 1 2 1 0 0 1 1 1 2 4 4 4 3 6 7 6 6 6 4 2 1 2 6 8 9 7 6 5 4 4 5 5 5 5 5 6 7 7 7 7 6 5 6 6 5 6
8 5 3 2 2 3 1 1 1 0 1 1 2 2 1 2 3 1 2 2 0 2 2 2 1 2 3 2 1 0 1 2 0 0 1 0 0 1 0 0 1 1 0 1 0 1 1 1 2 5 6 4 4 7 8 8 8 6 5 4 4 2 5 5 6 6 6 6 5 4 5 4 4 5 4 4 6 7 6 6 6 7 6 5 5 5 5
3 1 2 1 1 1 1 1 1 1 2 2 1 3 2 3 3 4 3 2 1 4 6 4 2 1 3 2 0 1 1 1 0 1 1 0 1 0 0 1 1 1 0 3 0 1 2 2 1 4 4 5 6 5 7 8 8 8 7 5 4 4 4 5 6 5 6 4 3 3 5 6 6 6 5 5 5 6 6 5 5 5 5 5 5 5 4
1 2 2 1 3 2 1 2 1 2 1 1 2 3 4 6 5 5 3 5 6 5 4 5 6 3 4 2 1 2 1 0 0 1 0 0 0 1 1 0 0 1 1 2 2 3 2 4 4 4 5 7 6 6 5 6 7 5 5 4 5 5 5 5 4 5 5 3 3 4 5 5 6 5 5 4 4 5 5 4 4 5 5 5 5 5 5
2 2 1 1 2 3 1 2 2 2 1 3 4 4 5 5 3 1 2 4 8 8 5 1 2 2 3 3 2 2 1 0 0 0 1 1 0 1 0 1 1 1 0 1 0 2 2 3 4 5 6 6 6 5 5 5 5 6 7 6 5 3 3 6 5 6 5 4 4 4 5 5 6 6 6 5 4 5 6 6 5 5 4 5 4 5 5
2 1 1 1 2 1 3 3 3 6 7 7 4 2 4 3 4 6 4 2 6 7 5 3 4 3 3 2 2 3 1 1 0 0 0 1 0 1 1 1 1 1 0 2 3 2 3 3 5 4 4 5 6 6 6 6 7 9 8 7 4 1 2 7 6 5 4 4 4 3 4 5 6 6 6 6 5 5 5 5 5 5 5 5 5 5 6
3 1 1 1 1 2 3 5 6 7 7 5 5 8 7 7 5 7 7 4 6 6 6 5 2 1 2 1 1 1 2 1 1 1 0 1 1 1 0 0 1 2 1 2 5 5 5 4 5 5 5 5 5 7 6 6 7 8 7 6 3 4 6 6 6 5 4 4 4 3 4 4 4 4 6 7 7 5 5 4 4 4 5 5 5 5 6
2 1 1 2 3 4 6 8 8 6 5 3 4 4 0 2 2 1 4 5 5 6 7 6 1 1 2 1 1 0 1 1 1 1 1 1 1 0 0 2 1 1 1 2 4 4 6 6 6 6 4 4 5 6 6 7 8 7 6 6 4 4 5 6 6 4 3 3 4 4 3 3 4 5 5 6 7 7 6 5 4 3 3 5 6 7 6
1 1 3 3 4 5 3 4 4 7 7 4 3 4 5 2 3 3 2 2 3 5 4 2 2 1 1 0 1 0 1 1 2 0 1 1 0 0 1 2 2 4 4 4 7 6 5 4 7 6 5 4 5 6 7 7 8 8 7 5 4 5 5 4 5 5 4 3 4 5 4 5 6 6 6 5 6 7 7 5 4 4 5 6 5 6 7
1 2 3 3 7 8 9 9 9 8 9 7 1 1 2 4 4 6 1 4 6 2 3 3 3 1 1 1 0 1 1 1 0 1 2 2 1 1 1 3 2 6 7 7 6 6 6 6 6 6 4 4 5 6 5 5 6 6 5 5 6 5 4 5 5 5 4 3 3 4 4 5 6 6 6 6 6 5 6 5 5 4 4 5 5 5 6
Wind_Direction
344 343 343 345 346 346 344 345 345 346 347 349 349 323 311 330 287 300 200 156 220 234 263 265 199 234 260 308 305 319 305 290 316 322 4 340 329 287 242 247 300 287 319 326 326 272 191 194 226 317 158 193 222 230 220 217 233 230 266 270 277 104 110 145 159 171 158 207 196 214 237 248 176 214 204 154 176 190 167 160 189 169 253 223 52 170 255
347 346 345 344 346 345 344 345 345 345 349 342 325 318 324 311 294 305 159 166 182 270 275 318 314 303 302 283 272 256 268 298 308 327 327 333 301 298 291 287 249 275 285 274 272 306 339 168 92 281 173 220 224 207 198 208 239 161 231 150 262 134 259 129 133 78 134 187 217 242 235 226 202 178 217 178 185 186 198 251 340 260 221 161 132 166 284
349 348 348 347 347 348 346 346 346 345 342 343 324 312 312 282 251 230 119 201 264 265 310 316 310 311 316 323 314 326 262 240 271 287 292 289 271 282 276 275 287 280 290 290 293 289 243 89 232 273 203 230 235 169 201 199 222 206 23 19 295 97 173 112 155 168 163 178 191 197 207 214 324 263 186 207 183 180 174 220 262 236 275 155 123 146 270
350 349 348 349 348 348 349 348 346 345 341 340 338 315 302 344 328 335 316 357 261 246 279 254 300 312 332 330 332 354 344 14 259 332 283 1 343 275 274 296 284 279 320 308 294 244 94 175 240 228 219 193 211 220 205 202 216 196 245 8 5 141 160 110 145 145 175 190 137 59 66 102 225 270 222 202 215 169 169 168 124 200 251 61 195 145 151
348 350 349 350 350 350 349 350 349 348 340 339 333 289 211 286 18 344 328 321 341 349 326 340 341 315 318 311 333 329 345 333 29 24 306 3 354 319 279 306 338 321 331 334 319 165 215 218 252 105 179 277 189 191 200 191 197 33 249 345 50 37 136 173 136 179 213 156 165 161 194 191 207 230 237 251 236 209 134 166 213 173 100 238 224 145 121
347 349 348 350 351 350 352 352 352 349 341 338 338 337 11 355 9 349 47 311 325 336 337 328 314 307 321 312 315 319 350 9 10 331 42 349 1 358 326 353 346 332 326 308 319 243 217 192 297 170 240 37 16 45 338 342 355 8 313 28 81 115 112 275 137 262 240 188 184 162 183 204 208 218 193 214 237 256 176 191 220 106 142 190 186 122 127
346 348 349 350 350 350 350 353 353 352 343 338 321 0 0 7 323 296 20 342 322 300 291 296 295 306 317 313 320 339 355 358 34 27 315 1 356 15 5 331 330 331 330 346 336 5 0 2 340 34 328 350 73 358 329 303 325 253 342 324 207 66 260 74 22 286 273 235 199 172 175 191 213 200 198 202 238 244 221 200 216 93 165 142 157 132 123
346 347 349 350 349 349 351 352 354 355 346 335 7 44 345 15 335 332 336 288 298 291 299 301 299 298 337 319 347 338 350 354 2 23 358 347 331 344 336 349 335 336 328 334 60 17 338 349 331 341 9 323 116 218 213 135 270 193 230 357 339 104 314 32 66 23 312 266 180 153 167 174 217 203 224 225 222 225 203 139 106 91 109 155 134 134 89
346 346 347 348 348 350 351 352 356 358 351 10 9 13 44 317 297 315 314 318 318 321 308 310 313 314 321 335 347 343 349 346 346 341 124 145 292 312 312 334 316 338 343 17 15 7 325 305 311 321 347 301 314 332 245 232 157 215 309 21 9 75 262 64 69 45 304 288 65 335 177 170 184 192 219 237 206 214 276 251 177 120 152 170 126 127 119
344 345 345 347 349 349 349 351 354 358 353 1 338 350 340 314 293 311 299 292 308 317 330 317 308 334 354 339 340 338 335 328 340 335 162 168 208 258 276 312 328 340 2 353 334 312 300 292 294 301 291 274 274 247 279 233 137 198 30 60 62 100 99 55 36 49 272 241 75 26 153 139 187 248 254 215 185 159 224 244 129 172 130 106 155 197 169
344 345 345 346 347 349 349 350 350 356 358 7 352 334 334 347 333 325 287 294 297 333 328 323 338 332 333 332 328 332 326 331 329 334 296 265 191 214 178 24 22 319 297 262 273 270 284 289 285 284 279 284 299 309 324 232 109 200 137 58 342 57 79 98 94 164 264 65 53 62 48 115 214 230 308 59 184 185 170 252 221 235 140 190 179 155 148
342 342 343 344 344 346 348 347 349 352 0 343 329 313 316 311 302 282 310 320 295 314 330 315 323 315 313 328 333 331 324 325 316 297 292 300 292 304 115 157 106 335 253 245 297 308 287 267 263 294 292 341 335 314 297 200 162 208 125 131 58 54 69 281 187 128 276 16 56 44 116 212 243 239 110 67 63 59 12 263 214 222 179 106 107 129 152
340 341 342 343 344 345 348 347 345 347 350 347 332 330 316 316 309 319 307 296 295 322 327 318 311 301 328 336 334 323 319 310 306 317 312 313 303 310 126 176 223 242 223 178 262 312 12 351 331 323 330 335 302 324 308 144 145 33 80 72 102 52 85 297 336 147 11 44 66 103 247 238 281 320 91 99 65 60 46 2 318 252 183 146 135 157 154
339 339 341 342 341 341 343 346 342 344 345 347 331 321 311 316 330 309 308 321 293 289 301 300 300 333 330 325 324 318 320 318 327 319 331 329 331 354 51 184 228 186 123 96 80 31 11 20 11 12 345 345 358 10 302 124 138 213 154 196 300 356 61 61 313 39 112 207 126 186 306 355 350 354 344 69 96 40 99 147 274 267 240 175 142 153 146
337 338 339 338 338 339 342 343 341 341 341 344 318 312 309 307 304 316 273 271 294 302 290 268 345 324 321 317 326 321 318 330 329 340 326 333 326 57 342 324 310 349 104 103 236 233 156 74 35 25 337 29 62 279 299 164 130 212 222 171 211 247 187 225 103 312 103 68 53 27 36 257 282 259 269 283 133 125 185 91 307 305 351 222 145 149 147
336 336 337 337 336 337 340 340 341 339 337 342 327 318 300 277 280 258 289 267 313 307 264 337 326 311 312 313 321 326 339 333 334 324 326 339 337 25 171 243 267 318 55 44 139 117 33 63 9 59 18 10 312 5 315 129 141 214 221 184 204 221 214 156 120 192 76 85 81 215 142 244 210 246 251 279 43 107 101 67 290 279 14 10 139 150 143
333 335 337 336 334 334 336 338 339 340 336 340 334 319 302 314 301 291 315 297 200 254 285 299 291 290 306 310 334 340 356 327 335 347 336 341 333 352 338 339 325 329 114 91 16 67 66 61 40 337 296 286 13 218 269 130 147 169 229 209 214 225 209 68 73 74 142 134 151 286 196 196 273 232 178 180 79 70 74 161 262 283 343 334 42 141 153
332 332 334 333 333 332 333 335 337 337 336 337 332 323 298 290 267 289 281 211 297 282 256 257 337 320 305 315 306 303 300 308 316 318 281 299 316 359 332 331 336 335 2 98 140 64 182 133 165 179 273 280 266 315 310 311 104 212 185 152 152 337 335 118 189 163 278 157 254 78 309 283 288 190 175 122 89 77 119 196 236 281 317 345 13 126 168
331 331 332 331 331 330 331 333 335 335 335 333 331 305 289 318 309 260 267 248 211 268 267 306 296 262 260 263 247 259 254 278 291 303 313 324 359 335 313 302 19 342 8 332 358 327 335 267 168 152 135 251 255 265 308 33 239 332 76 62 355 325 74 301 102 39 202 209 146 210 210 242 240 317 103 113 65 60 214 231 216 266 341 346 10 11 174
330 327 327 328 328 328 330 331 332 332 333 336 335 311 302 303 284 264 264 283 218 261 283 273 246 256 249 249 273 276 301 293 277 289 315 308 327 334 345 4 354 11 351 14 29 258 43 360 313 1 36 68 125 269 339 273 312 205 147 173 154 208 114 240 167 237 37 49 271 334 170 279 231 72 23 49 112 226 216 257 310 20 1 28 357 12 339
329 326 326 326 327 327 328 329 329 329 331 332 335 314 311 296 300 321 217 233 283 299 295 259 258 252 270 273 263 264 260 256 261 300 312 309 320 334 4 338 329 359 356 2 6 324 2 343 344 337 179 106 316 7 176 277 293 265 193 160 205 190 109 21 286 158 152 172 196 196 213 243 20 92 169 221 164 198 184 36 3 352 23 16 8 351 338
326 325 324 324 324 326 327 326 326 326 328 329 329 313 298 306 312 298 295 259 264 243 256 289 290 278 268 251 252 244 244 246 250 249 294 300 328 316 263 296 338 359 347 335 355 355 12 339 318 19 350 328 261 234 27 4 290 287 109 103 149 242 131 171 140 284 156 196 205 252 284 84 47 80 111 121 168 75 58 76 60 43 359 357 20 350 332
326 323 322 322 322 324 327 324 323 324 324 326 326 309 302 309 301 309 307 284 259 260 266 274 278 271 271 260 237 234 228 232 246 249 235 254 306 278 279 349 331 37 281 359 79 198 283 345 243 248 295 229 203 344 359 155 262 348 328 300 114 290 145 179 97 358 21 73 148 123 35 354 32 47 63 69 42 27 44 49 36 33 58 52 40 356 21
323 321 320 320 321 323 322 322 321 322 322 323 321 306 304 300 299 298 288 254 267 299 292 222 287 308 301 307 306 156 197 217 221 225 203 192 210 293 337 133 230 325 123 233 200 162 254 221 229 184 240 257 48 55 66 354 130 261 314 332 319 295 16 346 133 192 65 316 316 20 359 334 69 49 36 35 21 39 42 7 22 38 8 44 51 68 48
322 320 319 319 320 320 318 319 320 319 320 319 319 302 291 286 277 292 306 312 308 324 294 308 277 247 260 266 282 215 204 195 188 200 193 205 213 205 223 64 349 302 282 303 277 298 355 282 307 55 72 282 92 275 191 164 293 45 43 302 350 299 353 36 20 109 124 210 159 261 328 337 329 75 51 349 29 62 4 1 80 20 4 23 116 92 87
321 319 317 317 317 316 317 317 318 317 316 318 317 307 298 284 285 277 269 265 255 250 275 298 285 295 328 320 302 293 232 171 183 185 199 207 207 221 264 309 302 274 281 303 307 258 250 309 295 275 291 316 96 156 213 181 205 264 180 211 215 186 276 91 289 75 46 46 19 329 23 353 22 42 49 36 49 34 19 359 15 24 13 1 24 125 162
319 317 315 314 314 314 315 316 314 314 317 318 314 296 283 276 258 251 252 262 310 283 211 266 293 304 329 311 296 293 209 165 165 184 195 214 211 213 226 258 270 304 342 333 281 230 260 231 166 243 287 222 201 230 164 311 231 147 315 276 315 351 36 330 46 44 29 122 257 297 89 246 296 341 313 20 23 32 47 348 350 46 28 338 24 30 111
317 315 314 313 313 313 315 314 314 315 318 318 310 290 274 266 250 233 241 240 232 270 299 286 307 297 309 278 258 273 164 168 172 180 180 197 219 220 221 235 266 110 326 12 347 347 283 274 254 239 137 353 34 321 294 124 119 10 304 267 62 79 293 64 132 147 215 207 207 244 211 165 190 219 268 323 65 46 360 292 50 24 16 335 108 83 58
315 315 313 311 310 310 311 312 313 315 316 320 308 298 276 241 235 228 230 237 241 272 283 286 281 281 284 311 316 304 187 164 167 175 176 185 193 190 223 221 239 164 98 352 233 235 231 246 264 268 188 220 119 263 27 332 346 225 234 14 71 46 340 345 336 115 151 170 175 216 268 162 110 72 56 4 58 82 70 30 55 27 318 22 110 113 111
314 314 312 310 309 309 309 309 311 312 317 317 314 299 303 80 139 209 228 223 212 290 307 334 315 273 314 310 284 311 155 173 169 182 183 170 184 181 209 177 217 100 151 172 175 280 249 270 286 290 125 165 152 232 120 228 159 213 66 34 26 42 297 266 290 82 144 327 142 225 185 141 324 80 58 20 339 104 82 62 41 1 357 68 84 96 107
313 312 310 309 307 305 304 305 306 307 312 305 308 308 264 199 14 27 26 21 22 14 285 219 259 299 303 246 248 238 191 178 183 190 183 181 173 188 158 105 139 131 91 302 72 228 268 298 320 312 89 23 97 165 230 21 281 79 359 5 360 320 327 340 294 321 161 245 212 201 92 131 218 76 27 328 324 117 89 53 25 36 69 74 64 80 93
311 310 310 307 304 302 299 298 298 300 287 279 248 232 316 25 347 314 322 345 349 307 259 303 303 285 275 295 278 296 188 179 186 171 179 131 173 121 89 134 180 213 191 202 236 333 250 218 194 287 338 257 99 290 294 248 192 242 294 9 321 341 357 327 344 327 340 348 61 58 35 11 27 136 216 242 233 77 104 101 59 59 66 81 72 65 87
310 309 308 305 301 298 296 292 288 283 262 265 270 275 275 275 270 267 274 292 319 255 261 257 259 294 270 273 302 291 278 114 149 134 190 178 162 110 123 200 94 280 175 83 271 201 243 102 27 334 274 94 100 253 229 172 212 58 45 293 20 14 348 324 320 285 320 20 28 152 183 184 319 86 193 102 87 79 77 71 65 76 66 64 73 76 80
310 309 305 302 299 296 291 287 283 281 276 265 264 244 249 238 246 244 218 177 244 260 244 229 270 258 268 288 284 275 206 164 191 140 181 214 136 104 173 126 175 173 239 161 250 5 309 56 188 226 334 264 204 63 347 308 15 67 50 10 9 15 333 359 328 297 35 56 38 17 110 212 288 317 12 72 67 65 68 57 61 78 73 70 61 82 110
311 307 304 300 296 292 290 289 289 233 219 235 235 243 149 310 143 150 157 155 173 224 207 240 217 293 314 316 304 283 236 194 197 185 187 207 127 141 127 95 151 198 280 140 338 212 219 226 175 99 243 105 52 6 269 331 7 27 352 153 147 104 16 323 271 249 56 3 98 196 274 46 316 329 92 83 97 102 86 64 86 94 86 76 73 53 65
310 306 302 299 296 293 291 260 185 193 199 228 255 58 61 78 118 145 178 197 220 310 271 270 277 245 259 292 301 286 325 305 253 120 101 123 55 213 135 153 278 245 166 129 217 192 214 228 113 188 217 92 225 178 209 274 282 87 297 151 177 156 190 189 199 174 108 181 62 1 342 3 39 101 82 63 67 75 78 72 71 87 97 92 92 93 77
307 305 303 302 290 172 243 218 160 204 8 5 106 108 36 357 122 129 211 271 208 212 250 288 271 240 203 239 279 268 318 312 313 75 123 120 193 214 121 67 231 228 85 281 238 195 240 150 115 114 38 164 237 210 188 172 99 160 177 243 223 128 65 51 42 29 190 58 38 16 18 60 47 39 61 51 40 41 70 78 116 116 109 108 102 94 103
305 304 302 278 261 269 235 32 18 310 316 131 119 131 197 207 174 196 176 232 195 168 224 217 251 258 259 238 256 258 294 269 354 329 296 188 103 226 179 173 229 134 231 215 234 201 127 130 154 129 82 97 146 183 189 161 163 172 74 70 50 61 74 53 30 35 44 39 23 17 24 22 28 43 66 49 42 49 49 53 60 82 94 91 101 105 92
301 286 268 298 290 300 10 340 346 336 313 217 178 246 214 194 201 221 197 187 160 214 204 214 246 228 236 261 261 270 191 256 325 15 25 280 113 305 134 216 287 77 282 11 304 70 343 277 102 63 96 132 96 104 99 97 76 61 64 70 71 48 52 59 66 68 90 104 89 58 80 57 23 43 54 61 42 40 51 53 49 61 86 93 100 105 104
351 336 329 306 328 329 303 309 331 317 264 254 189 158 238 187 150 253 166 161 223 201 169 229 229 220 209 218 245 285 267 63 18 314 257 297 122 166 248 346 257 100 268 141 244 323 115 343 70 88 229 205 129 153 118 106 91 62 52 56 48 39 29 54 21 54 98 77 76 65 59 63 58 51 49 45 39 39 44 58 58 57 73 80 75 79 92
351 336 324 325 328 321 308 319 307 238 240 241 247 218 253 252 212 244 277 230 225 214 185 222 216 226 232 235 243 270 285 140 240 172 139 204 247 88 31 244 218 97 260 266 267 101 139 100 69 108 201 172 150 121 102 95 80 64 46 40 36 22 13 57 46 46 79 76 60 51 56 73 66 59 61 65 57 52 58 67 60 46 49 58 78 95 103
328 299 283 295 285 280 288 254 215 272 246 228 234 245 203 246 252 262 185 217 235 236 225 205 263 233 184 205 224 176 294 202 176 116 76 320 287 127 231 256 46 117 262 241 152 60 99 95 94 46 201 142 145 124 115 110 97 85 64 42 36 18 9 52 60 51 63 81 79 68 58 63 67 63 61 60 51 48 65 73 74 63 60 60 66 76 87
290 278 252 263 276 255 222 285 203 178 208 193 168 270 233 235 195 214 242 224 280 243 255 316 238 190 275 46 328 199 208 204 53 319 62 239 292 47 20 319 14 330 246 277 64 249 72 98 113 208 172 162 179 132 118 118 110 104 97 76 65 297 92 83 74 74 66 60 70 85 85 79 84 82 83 82 79 64 57 63 76 82 72 73 69 69 79
278 260 244 192 225 261 157 285 234 145 268 230 169 221 229 278 288 237 266 271 259 265 235 211 70 67 292 254 159 278 2 344 46 56 300 272 72 298 62 285 249 244 33 31 233 107 149 87 170 162 161 181 119 116 127 127 133 130 131 161 186 153 99 104 107 97 77 74 77 75 92 97 89 87 82 74 78 89 76 64 65 77 79 79 76 86 96
311 289 220 246 246 258 88 297 259 220 223 215 223 244 222 231 260 253 239 259 337 306 305 315 351 27 305 268 208 267 110 226 350 100 249 102 349 280 93 284 285 5 330 269 263 45 58 58 116 120 139 104 115 125 127 144 138 144 160 171 179 154 138 108 102 116 123 119 120 105 92 92 94 89 79 83 86 92 103 107 96 85 83 91 96 93 102
283 296 335 327 293 273 212 261 195 226 242 229 226 211 249 254 262 280 336 340 304 299 326 357 348 21 317 297 149 228 285 177 62 243 231 75 62 318 266 300 33 343 319 338 41 75 125 151 161 138 117 121 130 131 117 102 118 133 115 102 66 63 85 105 101 100 115 126 108 93 101 102 102 101 97 92 101 114 113 112 109 107 103 100 107 111 112
258 255 238 285 272 271 271 260 252 241 260 220 228 236 243 268 285 203 137 306 309 311 330 312 270 274 288 288 345 329 288 27 205 263 70 45 222 257 23 81 290 252 128 285 42 97 97 114 113 106 111 120 121 119 114 112 98 94 92 87 71 47 75 93 95 90 71 71 90 98 109 112 111 113 115 104 85 83 92 101 108 111 112 113 110 106 108
285 295 327 239 254 253 233 242 270 281 287 285 282 314 10 8 15 336 324 292 289 295 299 310 322 342 333 301 128 215 240 239 204 301 158 194 30 37 360 8 292 267 191 87 54 99 94 93 122 117 115 124 120 107 101 105 111 109 105 94 106 178 99 102 104 106 117 111 99 97 103 114 125 129 122 118 112 100 100 102 109 116 119 117 113 111 112
273 302 282 281 273 297 298 330 330 302 295 295 356 36 29 13 343 299 302 324 307 310 304 293 253 63 263 260 281 356 300 263 168 223 13 38 96 220 175 227 277 305 284 135 164 134 136 117 98 101 102 102 110 115 123 122 117 115 120 129 144 112 93 89 80 84 97 101 102 105 102 113 115 118 124 127 122 123 123 119 118 123 134 135 132 125 121
245 236 214 241 292 275 271 285 276 274 293 337 41 8 73 255 268 273 300 312 315 335 328 318 346 106 254 47 320 313 259 260 231 130 101 145 202 192 62 290 238 157 318 21 94 124 119 118 111 99 95 93 107 112 105 99 103 105 104 102 108 107 106 115 123 123 102 115 123 117 119 126 116 110 110 120 133 137 129 123 120 117 111 114 125 124 126
195 232 243 207 231 269 327 298 312 321 319 317 19 5 342 307 271 278 267 294 331 351 358 316 279 224 284 300 256 283 284 341 19 352 145 213 165 123 176 235 241 164 152 128 103 97 92 101 109 111 98 97 107 111 115 124 124 128 139 153 147 129 139 140 134 129 116 106 109 120 103 88 99 108 104 94 89 98 109 115 119 118 109 107 117 124 132
228 238 242 229 229 243 247 258 267 264 271 283 313 158 330 301 306 289 290 26 343 344 279 290 307 295 241 229 256 257 311 2 3 6 12 297 132 155 213 220 190 157 143 113 96 86 86 84 97 116 121 111 116 121 140 147 132 138 136 128 127 131 128 117 112 119 131 120 103 103 112 112 117 126 129 118 117 113 109 112 115 116 119 119 123 130 131